COMS 1

Last updated on Thu Oct 30 2025 00:02:23 GMT+0000 (Coordinated Universal Time)

1 36744U 10032A 25302.52163999 -.00000331 00000+0 00000+0 0 9992 2 36744 4.2303 78.4579 0000752 143.9477 131.6742 1.00271509 48772
UTC large
Height (km)
Speed (km/s)
/
Latitude / Longitude
Inclination (degrees)
Orbital Period (minutes)
Azimuth
Elevation
Range (km)
Doppler Factor

Next 0 passes for location: London (51.5072 / 0.1276)

Sorry there are no passes over London.